www.pogodaiklimat.ru

АРХИВ ПОГОДЫ в Ростове-на-Дону

Время (UTC), дата Ветер
(напр.,м/с)
 
Видим.   Явления Облачность Т
(С)
Тd
(С)
f
(%)
Тe
(С)
Тes
(С)
Комфортность P
(гПа)
Po
(гПа)
Тmin
(С)
Tmax
(С)
R
(мм)
S
(см)
18 26.04 В 4 5000 м дымка {гроза, ливн. осадки} 4/0
[Ac trans]
+12.0 +10.4 90 +10 +10 по сезону 1008.4 999.5
21 26.04 В 5 6000 м зарница 5/3
[Cb cap Ac trans]
+12.7 +11.1 90 +10 +10 по сезону 1008.4 999.5
00 27.04 В 5 8000 м слабый ливневой дождь 6/3
[Cb cap Ac trans]
+12.8 +9.9 83 +11 +11 тепло 1007.1 998.2
03 27.04 В 5 10 км слабый ливневой дождь, в посл. час гроза 9/4 1500 м
[Cb calv Ac trans]
+13.1 +10.4 84 +11 +11 по сезону 1008.6 999.7 +11.5 3
06 27.04 В 5 10 км слабый ливневой дождь {гроза} 9/5
[Cb calv Ac trans]
+13.5 +11.8 89 +11 +13 по сезону 1008.2 999.4
09 27.04 Ю 4 10 км слабый ливневой дождь 9/5 1000 м
[Cb calv Ac trans]
+14.2 +12.1 87 +13 +16 по сезону 1010.0 1001.2
12 27.04 ЮЗ 3 10 км {ливн. осадки} 8/4
[Cb calv Ac trans]
+17.0 +11.0 68 +17 +20 по сезону 1010.5 1001.7
15 27.04 ЮЗ 8-11
{13}
10 км 8/3
[Cb calv Ac trans]
+15.9 +7.2 56 +14 +14 по сезону 1011.4 1002.6 +18.8 3
18 27.04 ЮЗ 6
{13}
8000 м 8/4 1000 м
[Cb calv Ac trans]
+13.2 +7.9 70 +11 +11 по сезону 1012.7 1003.8
21 27.04 Ю 7-10
{11}
8000 м 9/5 570 м
[Cb calv Ac trans]
+11.7 +8.0 78 +9 +9 по сезону 1013.1 1004.1
00 28.04 ЮЗ 7-10
{11}
8000 м слабый ливневой дождь 10/8 210 м
[Cb calv Ac und]
+11.1 +9.8 92 +8 +8 по сезону 1012.8 1003.8
03 28.04 ЮЗ 7
{12}
10 км в посл. час ливневой дождь 10/8 270 м
[Cb calv Ac und]
+11.5 +9.6 88 +8 +8 по сезону 1013.7 1004.7 +10.7 0.5
06 28.04 ЮЗ 7
{12}
10 км в посл. час ливневой дождь 10/8 400 м
[Cb calv Ac und]
+12.5 +9.7 83 +10 +10 по сезону 1015.1 1006.2
09 28.04 ЮЗ 8-10
{11}
10 км 5/5 900 м
[Sc]
+16.3 +10.6 69 +15 +16 по сезону 1015.7 1006.9
12 28.04 ЮЗ 7-10
{11}
10 км 4/4
[Cu med, cong]
+16.8 +8.7 59 +16 +17 по сезону 1016.5 1007.7
15 28.04 З 5
{11}
10 км 3/3
[Cu med, cong]
+16.9 +9.0 60 +16 +17 тепло 1016.9 1008.1 +17.6 0.0
18 28.04 З 3 8000 м ясно +13.3 +9.7 79 +12 +12 по сезону 1018.1 1009.2
21 28.04 З 1 6000 м дымка 5/1
[St Ac trans]
+10.2 +8.3 88 +10 +10 по сезону 1018.7 1009.6
00 29.04 З 1 3900 м местами туман поземный 4/0
[Ac trans]
+9.4 +8.0 91 +9 +9 по сезону 1018.5 1009.4
03 29.04 СЗ 2 100 м туман 6/4 50 м
[St Ac trans]
+9.7 +8.8 94 +8 +8 по сезону 1018.9 1009.8 +7.6
06 29.04 З 2 5000 м дым {туман} 3/0
[Ac trans]
+16.4 +8.8 61 +17 +24 тепло 1019.6 1010.7
09 29.04 Ю 3 10 км 6/5
[Cb calv Ac trans]
+17.2 +8.1 55 +17 +23 тепло 1019.2 1010.4
12 29.04 З 2 10 км 8/4
[Cb calv Ac trans]
+18.8 +5.7 42 +20 +24 тепло 1018.5 1009.7
15 29.04 З 3 10 км 5/1
[Sc Ac trans]
+19.0 +5.8 42 +20 +20 тепло 1018.1 1009.3 +20.0
18 29.04 З 3 8000 м 4/0
[Ac trans]
+14.8 +7.2 60 +14 +14 тепло 1018.9 1010.0
21 29.04 З 2 8000 м 3/0
[Ac trans]
+12.3 +6.7 69 +11 +11 по сезону 1018.0 1009.0
00 30.04 ЮЗ 2 6000 м дымка 8/0
[Ac trans]
+10.2 +8.2 87 +9 +9 по сезону 1017.4 1008.4
03 30.04 СЗ 1 6000 м местами туман поземный 4/0
[Ac trans]
+9.4 +7.4 87 +9 +9 по сезону 1017.1 1008.0 +8.7
06 30.04 С 1 10 км 8/0
[Ac trans Ci fib]
+15.6 +10.0 69 +16 +23 тепло 1017.1 1008.2
09 30.04 В 1 10 км 8/5
[Cb calv Ac trans]
+18.6 +10.2 58 +20 +26 тепло 1016.3 1007.5
12 30.04 В 2 10 км гроза, ливневой дождь 9/5
[Cb cap Ac trans]
+16.6 +12.3 76 +17 +20 по сезону 1015.7 1006.9
15 30.04 С 5 10 км {гроза} 8/4 1500 м
[Cb calv Ac trans]
+18.1 +9.3 56 +18 +18 тепло 1015.8 1007.0 +19.8 3
18 30.04 С 4 8000 м {гроза, ливн. осадки} 1/0
[Ac trans]
+13.8 +7.9 68 +12 +12 по сезону 1016.9 1008.0
21 30.04 С 4 8000 м 4/1
[Cb calv Ac trans]
+11.3 +8.0 80 +9 +9 по сезону 1017.0 1008.0
00 1.05 С 4 8000 м ясно +10.2 +7.9 86 +8 +8 по сезону 1016.8 1007.8
03 1.05 С 4 10 км 8/4 1500 м
[Cb calv Ac trans]
+10.5 +7.9 84 +8 +8 по сезону 1017.0 1008.0 +9.7
06 1.05 С 5 10 км 8/5
[Cb calv Ac trans]
+14.2 +9.5 73 +13 +14 по сезону 1017.4 1008.5
09 1.05 С 4 10 км 9/3
[Cb calv Ac trans]
+15.0 +9.3 69 +14 +18 по сезону 1018.0 1009.1
12 1.05 С 6 10 км {ливн. осадки} 8/3
[Cb calv Ac trans]
+16.3 +8.4 59 +15 +17 прохладно 1018.0 1009.1
15 1.05 С 7
{12}
10 км 6/3
[Cb calv Ac trans]
+15.1 +6.7 57 +13 +14 по сезону 1018.9 1010.0 +17.3 0.0
18 1.05 СВ 2
{12}
8000 м 3/0
[Ci fib]
+10.9 +6.6 75 +10 +10 по сезону 1021.3 1012.2
21 1.05 С 2 8000 м ясно +9.9 +6.6 80 +8 +8 по сезону 1021.2 1012.1
00 2.05 СЗ 2 8000 м ясно +8.9 +5.5 79 +7 +7 по сезону 1021.2 1012.1
03 2.05 СЗ 3 10 км 3/0
[Ac trans Ci fib]
+8.4 +5.1 80 +6 +6 прохладно 1021.5 1012.4 +6.4
06 2.05 С 4 10 км 3/0
[Ci fib]
+14.2 +5.1 54 +13 +19 по сезону 1021.6 1012.6
09 2.05 СЗ 4
{10}
10 км 4/4
[Cu hum]
+16.7 -1.0 30 +16 +23 по сезону 1020.8 1011.9
12 2.05 СЗ 3
{10}
10 км 3/3
[Cu hum]
+18.3 -0.1 29 +19 +25 тепло 1019.4 1010.6
15 2.05 СЗ 3 10 км 3/3
[Cu hum]
+18.0 -0.1 29 +18 +19 тепло 1018.8 1010.0 +18.7
18 2.05 З 3 8000 м 1/0
[Ac trans]
+14.3 +3.7 49 +14 +14 по сезону 1018.3 1009.4
21 2.05 СЗ 2 10 км 1/0
[Ac trans]
+12.0 +4.3 59 +11 +11 по сезону 1017.8 1008.8
00 3.05 штиль 0 8000 м ясно +7.0 +2.8 75 +6 +6 прохладно 1017.3 1008.1
03 3.05 С 4 10 км ясно +10.3 +3.3 62 +8 +8 прохладно 1016.8 1007.8 +6.2
06 3.05 СВ 4 10 км 1/0
[Ac trans]
+13.1 +4.2 55 +12 +17 по сезону 1017.3 1008.3
09 3.05 В 6
{14}
10 км 1/0
[Ac trans]
+16.9 +3.8 42 +16 +22 по сезону 1016.3 1007.5
12 3.05 В 7-10
{14}
10 км 3/0
[Ac trans Ci fib]
+18.2 +2.5 35 +18 +20 по сезону 1014.4 1005.6
15 3.05 В 7-10
{11}
10 км 5/0
[Ac trans Ci fib]
+17.2 +4.5 43 +16 +17 по сезону 1013.6 1004.8 +18.9

 

Местоположение метеостанции Ростов-на-Дону (Ростовская область, Россия): широта 47.27 долгота 39.82 высота над уровнем моря 75 м.

В архиве по умолчанию представлена погода в Ростове-на-Дону за последнюю неделю. Архивные данные за месяц целиком и за предыдущие месяцы, начиная с января 2011 года, Вы можете получить, выбрав интересующий диапазон дат из раскрывающегося списка и нажав кнопку "Ввод!".

Внимание! Время в таблицах - всемирное. Для получения местного времени необходимо прибавить поправку, которая в Ростове-на-Дону равна 3 ч.

Ветер - указаны скорость ветра в м/с - средняя за 10 мин, порывы в срок и между сроками (в фигурных скобках) и направление, откуда дует ветер: С - северный, СВ - северо-восточный, В - восточный, ЮВ - юго-восточный, Ю - южный, ЮЗ - юго-западный, З - западный, СЗ - северо-западный.
Видимость - горизонтальная дальность видимости в метрах или километрах. При видимости от 1 до 10 км при отсутствии осадков обычно наблюдается дымка, при ухудшении видимости до 1 км и менее - туман. В сухую погоду видимость может ухудшаться дымом, пылью или мглою.
Явления - указаны атмосферные явления, наблюдавшиеся в срок или в последний час перед сроком; фигурными скобками обозначены явления, наблюдавшиеся между сроками (за 1-3 часа до срока); квадратными скобками обозначены град или гололедные отложения с указанием их диаметра в мм.
Облачность - указаны через наклонную черту общая и нижняя облачность в баллах и высота нижней границы облаков в метрах; квадратными скобками обозначены формы облаков: Ci - перистые, Cs - перисто-слоистые, Cc - перисто-кучевые, Ac - высококучевые, As - высокослоистые, Sc - слоисто-кучевые, Ns - слоисто-дождевые, Cu - кучевые, Cb - кучево-дождевые. Подробнее классификацию облаков см. в Атласе облаков (PDF).
T - Температура воздуха - температура, измеренная на высоте 2 м над землей.
Td - Температура точки росы - температура, при понижении до которой содержащийся в воздухе водяной пар достигнет насыщения.
f - Относительная влажность воздуха - влажноcть воздуха, измеренная на высоте 2 м над землей.
Te - Эффективная температура - температура, которую ощущает одетый по сезону человек в тени. Характеристика душности погоды. При расчете учитывается влияние влажности воздуха и скорости ветра на теплоощущения человека.
Tes - Эффективная температура на солнце - температура, которую ощущает человек, с поправкой на солнечный нагрев. Характеристика знойности погоды. Зависит от высоты солнца над горизонтом, облачности и скорости ветра. Ночью, в пасмурную погоду, а также при ветре 12 м/с и более поправка равна нулю.
P - Атмосферное давление - приведенное к уровню моря атмосферное давление.
Po - Атмосферное давление - измеренное на уровне метеостанции атмосферное давление.
Tmin - Минимальная температура - минимум температуры воздуха на высоте 2 м над землей.
Tmax - Максимальная температура - максимум температуры воздуха на высоте 2 м над землей.
R - Количество осадков - Количество выпавших осадков, мм. При наведении курсора мыши на число - период времени, за который выпало указанное количество осадков.
S - Снежный покров - Высота снежного покрова, см. При наведении курсора мыши на число - состояние снежного покрова и степень покрытия местности в баллах.